Content
SEND FEEDBACK

Daily
Averages
Monthly
Summary
United States of America

RAPID CITY, SOUTH DAKOTA


Home > North America > United States > South Dakota
Elevation: 963 meters     Latitude: 44 03N     Longitude: 103 04W

WEATHER
 
SELECT A DAY
Number of Records: 203,220;   Date Range: 1/1/95 - 10/18/14
 
SHARE

PRINT THIS DATA

[ ← Previous Day ]
WEATHER ALMANAC - 1 NOVEMBER, 2013
[ Next Day → ]
[ °F ]   °C
Weather ElementAverageHighLow
Temperature5.8 °C10.6 °C (2:52 pm)-1.1 °C (10:52 pm)
Dewpoint-2.9 °C1.7 °C (1:52 am)-6.1 °C (10:52 pm)
Humidity56 %76 % (1:52 am)35 % (1:52 pm)
Barometer1016.6 hPa1021.7 hPa (8:52 pm)1009.5 hPa (1:52 am)
Wind Speed35.4 km/h68.6 km/h (12:52 pm)
Wind Gust90.8 km/h (12:52 pm)
Weather ElementAverage
Visibility16.1 km
Wind DirectionNW (317.8 °)

Weather ElementTotal
Precipitation---
Heating Degree Days13.6 (Base 18.3)
Averaged from 23 records on 1 November, 2013
WEATHER CONDITIONS BREAKOUT
WIND DIRECTION BREAKOUT
WEATHER BY HOUR - 1 NOVEMBER, 2013
[ °F ]   °C
Local TimeTemperatureDewpointHumidityBarometerVisibilityWind DirectionWind SpeedGust SpeedPrecipitationEventsConditions
1:52 AM5.6 °C1.7 °C76 %1009.5 hPa16.1 kmNNW (330°)42.6 km/h53.8 km/h0 mmOvercast
2:52 AM5 °C1.1 °C76 %1010.2 hPa16.1 kmNW (320°)31.5 km/hPartly Cloudy
3:52 AM5.6 °C0.6 °C70 %1010.8 hPa16.1 kmNNW (330°)29.6 km/hMostly Cloudy
4:52 AM6.1 °C0.6 °C68 %1011.9 hPa16.1 kmNW (320°)51.8 km/h62.9 km/hClear
5:52 AM5 °C0.6 °C73 %1012.9 hPa16.1 kmNW (310°)35.2 km/h50.1 km/hPartly Cloudy
6:52 AM5 °C-0.6 °C67 %1013.5 hPa16.1 kmWNW (300°)24.1 km/hClear
7:52 AM5.6 °C-1.7 °C60 %1014.2 hPa16.1 kmNW (310°)25.9 km/hClear
8:52 AM7.2 °C-1.7 °C53 %1014.6 hPa16.1 kmNW (310°)31.5 km/h44.4 km/hClear
9:52 AM8.9 °C-2.2 °C46 %1014.6 hPa16.1 kmNW (310°)46.3 km/h66.6 km/hPartly Cloudy
10:52 AM10 °C-3.3 °C39 %1014.6 hPa16.1 kmNW (320°)61.2 km/h87.1 km/hScattered Clouds
11:52 AM10 °C-3.3 °C39 %1015.6 hPa16.1 kmNNW (330°)59.2 km/h88.8 km/hClear
12:52 PM9.4 °C-4.4 °C38 %1016.6 hPa16.1 kmNNW (340°)68.6 km/h90.8 km/hClear
1:52 PM10 °C-5 °C35 %1016.6 hPa16.1 kmNNW (330°)68.6 km/h87.1 km/hPartly Cloudy
2:52 PM10.6 °C-4.4 °C35 %1017.3 hPa16.1 kmNNW (330°)53.8 km/h74 km/hScattered Clouds
3:52 PM10 °C-4.4 °C36 %1017.6 hPa16.1 kmNNW (330°)53.8 km/h72.3 km/hClear
4:52 PM8.9 °C-4.4 °C39 %1019 hPa16.1 kmNNW (330°)37 km/h55.5 km/hClear
5:52 PM5.6 °C-3.9 °C51 %1020.3 hPa16.1 kmNNW (340°)18.5 km/hClear
6:52 PM3.3 °C-3.9 °C60 %1021 hPa16.1 kmNNW (330°)18.5 km/hClear
7:52 PM1.7 °C-4.4 °C64 %1021.3 hPa16.1 kmNW (320°)14.8 km/hClear
8:52 PM-0.6 °C-5.6 °C69 %1021.7 hPa16.1 kmWNW (300°)11.1 km/hClear
9:52 PM0.6 °C-5.6 °C64 %1021.7 hPa16.1 kmWNW (290°)11.1 km/hClear
10:52 PM-1.1 °C-6.1 °C69 %1021.7 hPa16.1 kmWNW (300°)11.1 km/hClear
11:52 PM0.6 °C-6.1 °C61 %1021.7 hPa16.1 kmWest (280°)7.4 km/hClear
Hourly data recorded from KRAP, located 0 kilometers away from Rapid City, South Dakota







STORIES FROM OUR PARTNERS